Fort Lewis, WA
on Wednesday, February 6, 2013

Wednesday
Previous Day Next Day
Daily Summary
 ActualAverage (KOLM)Record (KOLM)
Temperature
Mean Temperature °F 41°F  
Max Temperature 49°F 48°F 64°F (1963)
Min Temperature 41°F 33°F 5°F (1989)
Degree Days
Heating Degree Days 20 24  
Month to date heating degree days 145  
Since 1 July heating degree days 3196  
Cooling Degree Days 0 0  
Month to date cooling degree days 0  
Year to date cooling degree days 0  
Moisture
Dew Point 41°F   
Average Humidity 86    
Maximum Humidity 100    
Minimum Humidity 69    
Precipitation
Precipitation 0.07 in 0.21 in 2.41 in (1979)
Month to date precipitation 1.22  
Year to date precipitation 9.06  
Wind
Wind Speed 10 mph   
Max Wind Speed 15 mph   
Max Gust Speed 25 mph   
Visibility 10 miles   
Events     

Key: T is trace of precipitation, MM is missing value
Source: NWS Daily Summary
Time(PST)TemperatureDew PointHumidity Pressure Visibility Wind DirectionWind SpeedGust SpeedPrecipitationEvents Conditions
12:28 AM 42.8°F 41.0°F 93% 29.97 in 10.0 miles South 11.5 mph - N/A   Mostly Cloudy
12:33 AM 42.8°F 41.0°F 93% 29.97 in 10.0 miles South 10.4 mph - N/A   Overcast
12:58 AM 43.0°F 40.6°F 91% 30.00 in 10.0 miles South 12.7 mph - N/A   Mostly Cloudy
1:58 AM 43.0°F 40.1°F 90% 30.01 in 10.0 miles South 8.1 mph - N/A   Scattered Clouds
1:59 AM 42.8°F 39.2°F 87% 29.99 in 10.0 miles South 9.2 mph - N/A   Light Drizzle
2:19 AM 42.8°F 41.0°F 93% 30.00 in 10.0 miles South 11.5 mph - N/A   Light Drizzle
2:25 AM 42.8°F 41.0°F 93% 30.00 in 10.0 miles South 10.4 mph - N/A   Overcast
2:30 AM 42.8°F 41.0°F 93% 30.00 in 10.0 miles South 10.4 mph - N/A   Overcast
2:31 AM 42.8°F 41.0°F 93% 30.00 in 10.0 miles South 9.2 mph - N/A   Light Drizzle
2:40 AM 42.8°F 41.0°F 93% 30.00 in 10.0 miles South 10.4 mph - N/A   Overcast
2:50 AM 42.8°F 41.0°F 93% 30.00 in 10.0 miles South 12.7 mph - N/A   Overcast
2:58 AM 42.6°F 40.5°F 92% 30.01 in 10.0 miles South 12.7 mph - 0.02 in   Overcast
3:23 AM 42.8°F 41.0°F 93% 30.00 in 10.0 miles South 12.7 mph - N/A   Overcast
3:53 AM 42.8°F 41.0°F 93% 30.00 in 10.0 miles South 15.0 mph - N/A   Overcast
3:58 AM 42.6°F 40.5°F 92% 30.03 in 10.0 miles South 11.5 mph - N/A   Overcast
4:03 AM 42.8°F 41.0°F 93% 30.01 in 10.0 miles South 10.4 mph - N/A   Overcast
4:19 AM 42.8°F 41.0°F 93% 30.01 in 10.0 miles South 9.2 mph - N/A   Light Drizzle
4:34 AM 42.8°F 41.0°F 93% 30.02 in 10.0 miles South 9.2 mph - N/A   Overcast
4:58 AM 42.4°F 40.8°F 94% 30.04 in 10.0 miles South 8.1 mph - 0.01 in   Overcast
5:13 AM 42.8°F 41.0°F 93% 30.02 in 10.0 miles South 9.2 mph - N/A   Mostly Cloudy
5:23 AM 42.8°F 41.0°F 93% 30.03 in 10.0 miles South 10.4 mph - N/A   Overcast
5:58 AM 42.1°F 40.8°F 95% 30.05 in 10.0 miles South 11.5 mph - N/A   Overcast
6:33 AM 42.8°F 41.0°F 93% 30.04 in 10.0 miles South 10.4 mph - N/A   Overcast
6:43 AM 42.8°F 41.0°F 93% 30.04 in 10.0 miles South 9.2 mph - N/A   Overcast
6:48 AM 42.8°F 41.0°F 93% 30.04 in 10.0 miles South 8.1 mph - N/A   Mostly Cloudy
6:58 AM 41.4°F 40.5°F 97% 30.06 in 10.0 miles South 8.1 mph - N/A   Mostly Cloudy
7:02 AM 41.0°F 41.0°F 100% 30.04 in 10.0 miles South 8.1 mph - N/A   Light Drizzle
7:11 AM 41.0°F 41.0°F 100% 30.04 in 10.0 miles South 9.2 mph - N/A   Scattered Clouds
7:58 AM 41.2°F 40.5°F 97% 30.07 in 10.0 miles South 6.9 mph - 0.00 in   Overcast
8:58 AM 42.6°F 40.5°F 92% 30.07 in 10.0 miles South 4.6 mph - N/A   Partly Cloudy
9:58 AM 44.6°F 41.4°F 88% 30.06 in 10.0 miles South 5.8 mph - N/A   Partly Cloudy
10:58 AM 47.1°F 40.6°F 78% 30.05 in 10.0 miles South 6.9 mph - N/A   Mostly Cloudy
11:48 AM 48.2°F 39.2°F 71% 30.01 in 10.0 miles SSE 12.7 mph - N/A   Overcast
11:53 AM 48.2°F 39.2°F 71% 30.01 in 10.0 miles SSE 12.7 mph - N/A   Mostly Cloudy
11:58 AM 48.6°F 39.6°F 71% 30.03 in 10.0 miles SSE 10.4 mph - N/A   Scattered Clouds
12:58 PM 48.6°F 39.0°F 70% 30.01 in 10.0 miles South 10.4 mph - N/A   Overcast
1:58 PM 49.1°F 39.2°F 69% 29.99 in 10.0 miles SSE 15.0 mph 25.3 mph N/A   Overcast
2:21 PM 48.2°F 41.0°F 76% 29.96 in 10.0 miles SSE 12.7 mph 18.4 mph N/A   Light Drizzle
2:27 PM 46.4°F 41.0°F 81% 29.96 in 10.0 miles SSE 11.5 mph - N/A   Scattered Clouds
2:35 PM 46.4°F 41.0°F 81% 29.96 in 10.0 miles SSE 9.2 mph - N/A   Light Drizzle
2:46 PM 46.4°F 41.0°F 81% 29.95 in 10.0 miles SSE 5.8 mph - N/A   Scattered Clouds
2:58 PM 46.0°F 42.8°F 88% 29.97 in 10.0 miles SSE 4.6 mph - 0.01 in   Scattered Clouds
3:40 PM 46.4°F 42.8°F 87% 29.95 in 10.0 miles SSE 4.6 mph - N/A   Light Drizzle
3:53 PM 46.4°F 42.8°F 87% 29.94 in 10.0 miles SE 1.2 mph - N/A   Overcast
3:58 PM 45.9°F 43.2°F 90% 29.97 in 10.0 miles SSE 2.3 mph - 0.01 in   Overcast
3:59 PM 46.4°F 42.8°F 87% 29.94 in 10.0 miles SSE 3.5 mph - N/A   Light Drizzle
4:09 PM 46.4°F 41.0°F 81% 29.94 in 9.0 miles SSE 4.6 mph - N/A   Light Drizzle
4:11 PM 46.4°F 41.0°F 81% 29.94 in 10.0 miles SSE 5.8 mph - N/A   Mostly Cloudy
4:16 PM 46.4°F 41.0°F 81% 29.93 in 10.0 miles SSE 2.3 mph - N/A   Mostly Cloudy
4:58 PM 45.5°F 42.1°F 88% 29.94 in 10.0 miles ENE 4.6 mph - 0.01 in   Scattered Clouds
5:58 PM 45.1°F 40.6°F 84% 29.92 in 10.0 miles East 3.5 mph - N/A   Mostly Cloudy
6:58 PM 45.1°F 39.6°F 81% 29.88 in 10.0 miles ESE 5.8 mph - N/A   Mostly Cloudy
7:58 PM 45.9°F 38.3°F 75% 29.86 in 10.0 miles ESE 8.1 mph - 0.01 in   Overcast
8:58 PM 46.6°F 37.4°F 70% 29.84 in 10.0 miles East 4.6 mph - N/A   Overcast
9:58 PM 45.3°F 37.4°F 74% 29.82 in 10.0 miles ESE 4.6 mph - N/A   Mostly Cloudy
10:58 PM 46.0°F 36.5°F 69% 29.81 in 10.0 miles SE 12.7 mph 18.4 mph N/A   Scattered Clouds
11:58 PM 47.5°F 37.6°F 69% 29.81 in 10.0 miles SE 11.5 mph - N/A   Overcast
Moon Phase
Feb. 06 Feb. 10 Feb. 17 Feb. 25 Mar. 04
Sunrise:07:28 AM (PST) Moon Rise:04:25 AM (PST)2/6
Sunset:05:21 PM (PST) Moon Set:01:38 PM (PST)2/6

Copyright © 2014 The Weather Underground, Inc.